Bradford, PA

8:19 AM EDT on April 29, 2017 (GMT -0400)
Bradford Regional

Weather History for KBFD - March, 2013

Change the Weather History Date:

Sunday, March 3, 2013

  Actual Average Record
Temperature  
Mean Temperature 20 °F 27 °F  
Max Temperature 23 °F 37 °F 66 °F (1976)
Min Temperature 18 °F 17 °F -9 °F (2003)
Degree Days  
Heating Degree Days 44 32  
Month to date heating degree days 98  
Since 1 July heating degree days 5668  
Cooling Degree Days 0 0  
Month to date cooling degree days 0  
Year to date cooling degree days 0  
Moisture  
Dew Point 14 °F    
Average Humidity 78    
Maximum Humidity 85    
Minimum Humidity 65    
Precipitation  
Precipitation 0.00 in 0.10 in 0.81 in (1991)
Month to date precipitation 0.29  
Year to date precipitation 5.93  
Sea Level Pressure  
Sea Level Pressure 29.81 in    
Wind  
Wind Speed 12 mph (WNW)    
Max Wind Speed 21 mph    
Max Gust Speed 29 mph    
Visibility 2 miles    
Events Snow    
T = Trace of Precipitation, MM = Missing Value Source: NWS Daily Summary

Daily Weather History Graph

Daily Weather History Graph

Search for Another Location

Airport or City:

Trip Planner

Search our weather history database for the weather conditions in past years. The results will help you decide how hot, cold, wet, or windy it might be!

Date:

Astronomy

Mar. 03, 2013 Rise Set
Actual Time 6:45 AM EST 6:07 PM EST
Civil Twilight 6:18 AM EST 6:35 PM EST
Nautical Twilight 5:45 AM EST 7:07 PM EST
Astronomical Twilight 5:13 AM EST 7:40 PM EST
Moon No Moon Rise 9:53 AM EST (3/3)
Length of Visible Light 12h 17m
Length of Day
11h 21m
Waning Gibbous, 64% of the Moon is Illuminated
Mar 3
Waning Gibbous
Mar 4
Last Quarter
Mar 11
New
Mar 19
First Quarter
Mar 27
Full

Hourly Weather History & Observations

Time (EST) Temp. Windchill Dew Point Humidity Pressure Visibility Wind Dir Wind Speed Gust Speed Precip Events Conditions
12:09 AM 19.9 °F 5.2 °F 16.0 °F 85% 29.77 in 4.0 mi NNW 17.3 mph - 0.00 in Snow Light Snow
12:40 AM 19.9 °F 8.6 °F 15.1 °F 81% 29.77 in 3.0 mi NNW 10.4 mph - 0.00 in Snow Light Snow
12:51 AM 19.4 °F 5.0 °F 14.0 °F 80% 29.77 in 2.5 mi NW 16.1 mph - 0.00 in Snow Light Snow
12:53 AM 19.9 °F 6.2 °F 14.0 °F 78% 29.86 in 2.5 mi NNW 15.0 mph 20.7 mph 0.00 in Snow Light Snow
1:13 AM 19.9 °F 8.6 °F 15.1 °F 81% 29.77 in 3.0 mi NW 10.4 mph - 0.00 in Snow Light Snow
1:35 AM 19.0 °F 9.0 °F 14.0 °F 81% 29.77 in 4.0 mi NNW 8.1 mph - 0.00 in Snow Light Snow
1:53 AM 19.0 °F 7.5 °F 12.9 °F 77% 29.86 in 3.0 mi NNW 10.4 mph - 0.00 in Snow Light Snow
2:53 AM 18.0 °F 8.7 °F 12.9 °F 81% 29.84 in 4.0 mi NW 6.9 mph - 0.00 in Snow Light Snow
3:36 AM 18.0 °F 7.7 °F 12.9 °F 81% 29.75 in 2.5 mi NW 8.1 mph - 0.00 in Snow Light Snow
3:53 AM 18.0 °F 8.7 °F 12.9 °F 81% 29.84 in 3.0 mi WNW 6.9 mph - 0.00 in Snow Light Snow
4:11 AM 18.0 °F 7.7 °F 12.9 °F 81% 29.76 in 4.0 mi WNW 8.1 mph - 0.00 in Snow Light Snow
4:36 AM 18.0 °F 5.4 °F 14.0 °F 84% 29.76 in 2.5 mi NW 11.5 mph - 0.00 in Snow Light Snow
4:45 AM 18.0 °F 7.7 °F 14.0 °F 84% 29.76 in 2.5 mi WNW 8.1 mph - 0.00 in Snow Light Snow
4:53 AM 18.0 °F 6.9 °F 14.0 °F 84% 29.85 in 2.0 mi NW 9.2 mph - 0.00 in Snow Light Snow
4:58 AM 18.0 °F 6.9 °F 14.0 °F 84% 29.76 in 1.5 mi NW 9.2 mph - 0.00 in Snow Light Snow
5:22 AM 18.0 °F 8.7 °F 14.0 °F 84% 29.76 in 2.0 mi WNW 6.9 mph - 0.00 in Snow Light Snow
5:37 AM 19.0 °F 8.2 °F 14.0 °F 81% 29.76 in 1.8 mi WNW 9.2 mph - 0.00 in Snow Light Snow
5:45 AM 19.0 °F 6.8 °F 14.0 °F 81% 29.76 in 1.5 mi WNW 11.5 mph - 0.00 in Snow Light Snow
5:53 AM 18.0 °F 4.2 °F 12.9 °F 81% 29.85 in 1.8 mi NW 13.8 mph - 0.00 in Snow Light Snow
5:57 AM 18.0 °F 4.8 °F 12.9 °F 81% 29.76 in 2.0 mi NW 12.7 mph - 0.00 in Snow Light Snow
6:09 AM 18.0 °F 7.7 °F 12.9 °F 81% 29.76 in 1.5 mi NW 8.1 mph - 0.00 in Snow Light Snow
6:16 AM 18.0 °F 6.9 °F 14.0 °F 84% 29.76 in 1.5 mi WNW 9.2 mph - 0.00 in Snow Light Snow
6:53 AM 18.0 °F 7.7 °F 12.9 °F 81% 29.85 in 1.2 mi WNW 8.1 mph - 0.00 in Snow Light Snow
7:53 AM 18.0 °F 5.4 °F 12.0 °F 78% 29.86 in 1.2 mi WNW 11.5 mph - 0.00 in Snow Light Snow
8:53 AM 19.0 °F 6.1 °F 12.0 °F 74% 29.86 in 1.0 mi WNW 12.7 mph - 0.00 in Snow Light Snow
9:10 AM 19.0 °F 8.2 °F 12.9 °F 77% 29.78 in 0.8 mi WNW 9.2 mph - 0.00 in Snow Light Snow
9:25 AM 19.0 °F 5.6 °F 12.0 °F 74% 29.77 in 1.2 mi WNW 13.8 mph - 0.00 in Snow Light Snow
9:40 AM 19.0 °F 6.1 °F 12.0 °F 74% 29.77 in 0.8 mi WNW 12.7 mph - 0.00 in Snow Light Snow
9:53 AM 19.0 °F 5.6 °F 12.0 °F 74% 29.86 in 0.8 mi WNW 13.8 mph - 0.00 in Snow Light Snow
10:08 AM 19.0 °F 6.1 °F 12.9 °F 77% 29.77 in 1.2 mi NW 12.7 mph - 0.00 in Snow Light Snow
10:53 AM 21.0 °F 8.1 °F 12.9 °F 71% 29.86 in 1.2 mi WNW 13.8 mph - 0.00 in Snow Light Snow
11:24 AM 21.9 °F 8.7 °F 12.9 °F 68% 29.78 in 2.5 mi WNW 15.0 mph - 0.00 in Snow Light Snow
11:44 AM 21.0 °F 7.1 °F 14.0 °F 74% 29.77 in 1.8 mi NW 16.1 mph 23.0 mph 0.00 in Snow Light Snow
11:53 AM 21.9 °F 7.3 °F 14.0 °F 72% 29.86 in 2.0 mi WNW 18.4 mph - 0.00 in Snow Light Snow
12:11 PM 21.9 °F 8.2 °F 12.9 °F 68% 29.77 in 3.0 mi WNW 16.1 mph 28.8 mph 0.00 in Snow Light Snow
12:53 PM 23.0 °F 10.6 °F 12.9 °F 65% 29.84 in 5.0 mi WNW 13.8 mph - 0.00 in Snow Light Snow
1:53 PM 23.0 °F 10.6 °F 15.1 °F 72% 29.83 in 4.0 mi West 13.8 mph 25.3 mph 0.00 in Snow Light Snow
2:27 PM 23.0 °F 11.1 °F 15.1 °F 72% 29.75 in 2.5 mi West 12.7 mph 21.9 mph 0.00 in Snow Light Snow
2:53 PM 23.0 °F 13.1 °F 15.1 °F 72% 29.83 in 1.8 mi WNW 9.2 mph 18.4 mph 0.00 in Snow Light Snow
3:06 PM 23.0 °F 9.6 °F 15.1 °F 72% 29.75 in 2.5 mi WNW 16.1 mph - 0.00 in Snow Light Snow
3:53 PM 21.9 °F 9.2 °F 14.0 °F 72% 29.85 in 2.5 mi NW 13.8 mph 26.5 mph 0.00 in Snow Light Snow
4:36 PM 21.9 °F 10.4 °F 14.0 °F 72% 29.77 in 1.5 mi WNW 11.5 mph - 0.00 in Snow Light Snow
4:53 PM 21.0 °F 8.1 °F 15.1 °F 78% 29.86 in 1.2 mi WNW 13.8 mph 20.7 mph 0.00 in Snow Light Snow
5:53 PM 21.0 °F 9.3 °F 15.1 °F 78% 29.87 in 1.0 mi West 11.5 mph - 0.00 in Snow Light Snow
6:30 PM 21.0 °F 9.3 °F 15.1 °F 78% 29.79 in 2.5 mi WNW 11.5 mph - 0.00 in Snow Light Snow
6:41 PM 21.0 °F 8.1 °F 14.0 °F 74% 29.80 in 3.0 mi West 13.8 mph - 0.00 in Snow Light Snow
6:53 PM 21.0 °F 8.1 °F 12.9 °F 71% 29.89 in 4.0 mi West 13.8 mph 21.9 mph 0.00 in Snow Light Snow
7:53 PM 19.9 °F 7.9 °F 14.0 °F 78% 29.90 in 3.0 mi West 11.5 mph - 0.00 in Snow Light Snow
8:16 PM 19.9 °F 10.1 °F 14.0 °F 78% 29.81 in 2.5 mi WNW 8.1 mph - 0.00 in Snow Light Snow
8:23 PM 19.9 °F 8.6 °F 14.0 °F 78% 29.82 in 3.0 mi WNW 10.4 mph - 0.00 in Snow Light Snow
8:39 PM 19.9 °F 8.6 °F 14.0 °F 78% 29.82 in 2.5 mi West 10.4 mph - 0.00 in Snow Light Snow
8:53 PM 19.9 °F 6.7 °F 14.0 °F 78% 29.90 in 2.5 mi WNW 13.8 mph - 0.00 in Snow Light Snow
9:03 PM 19.9 °F 7.3 °F 14.0 °F 78% 29.82 in 1.8 mi West 12.7 mph - 0.00 in Snow Light Snow
9:13 PM 19.9 °F 8.6 °F 14.0 °F 78% 29.82 in 1.8 mi West 10.4 mph - 0.00 in Snow Light Snow
9:53 PM 19.9 °F 8.6 °F 14.0 °F 78% 29.91 in 1.8 mi WNW 10.4 mph - 0.00 in Snow Light Snow
10:30 PM 19.9 °F 12.1 °F 14.0 °F 78% 29.82 in 2.0 mi West 5.8 mph - 0.00 in Snow Light Snow
10:35 PM 19.9 °F 11.1 °F 14.0 °F 78% 29.82 in 1.8 mi WNW 6.9 mph - 0.00 in Snow Light Snow
10:53 PM 19.9 °F 7.9 °F 14.0 °F 78% 29.90 in 1.5 mi WNW 11.5 mph - 0.00 in Snow Light Snow
11:01 PM 19.9 °F 6.7 °F 14.0 °F 78% 29.82 in 1.8 mi WNW 13.8 mph - 0.00 in Snow Light Snow
11:12 PM 19.0 °F 6.1 °F 14.0 °F 81% 29.82 in 1.2 mi WNW 12.7 mph - 0.00 in Snow Light Snow
11:24 PM 19.0 °F 2.7 °F 12.9 °F 77% 29.82 in 2.0 mi NW 20.7 mph 26.5 mph 0.00 in Snow Light Snow
11:53 PM 18.0 °F 2.6 °F 12.0 °F 78% 29.91 in 4.0 mi NW 17.3 mph 23.0 mph 0.00 in Snow Light Snow